Weather History for Joplin, MO

Change the Weather History Date:

Tuesday, May 22, 2012

  Actual Average Record
Temperature  
Mean Temperature 63 °F 68 °F  
Max Temperature 81 °F 79 °F 93 °F (1953)
Min Temperature 45 °F 58 °F 44 °F (2001)
Degree Days  
Heating Degree Days 2 1  
Month to date heating degree days 13 57  
Since 1 July heating degree days 3291 4060  
Cooling Degree Days 0 5  
Month to date cooling degree days 101 74  
Year to date cooling degree days 237 128  
Growing Degree Days 13 (Base 50)    
Moisture  
Dew Point 45 °F    
Average Humidity 61    
Maximum Humidity 93    
Minimum Humidity 28    
Precipitation  
Precipitation 0.00 in 0.17 in 1.86 in (1971)
Month to date precipitation 1.58 4.13  
Year to date precipitation 16.87 16.37  
Snow  
Snow 0.00 in - - ()
Month to date snowfall 0.0  
Snow Depth 0.00 in    
Sea Level Pressure  
Sea Level Pressure 29.99 in    
Wind  
Wind Speed 5 mph (SSE)    
Max Wind Speed 12 mph    
Max Gust Speed 16 mph    
Visibility 10 miles    
Events      
T = Trace of Precipitation, MM = Missing Value Source: NWS Daily Summary

Daily Weather History Graph

Daily Weather History Graph

Search for Another Location

Airport:

Trip Planner

Search our weather history database for the weather conditions in past years. The results will help you decide how hot, cold, wet, or windy it might be!

Date:

Astronomy

May. 22, 2012 Rise Set
Actual Time 6:04 AM CDT 8:25 PM CDT
Civil Twilight 5:34 AM CDT 8:55 PM CDT
Nautical Twilight 4:57 AM CDT 9:32 PM CDT
Astronomical Twilight 4:17 AM CDT 10:12 PM CDT
Moon 7:15 AM CDT (5/22) 10:04 PM CDT (5/22)
Length of Visible Light 15h 20m
Length of Day
14h 21m
Waxing Crescent, 3% of the Moon is Illuminated
May 22
Waxing Crescent
May 28
First Quarter
Jun 4
Full
Jun 11
Last Quarter
Jun 19
New

Hourly Weather History & Observations

Time (CDT) Temp. Dew Point Humidity Pressure Visibility Wind Dir Wind Speed Gust Speed Precip Events Conditions
12:53 AM 55.0 °F 45.0 °F 69% 30.12 in 10.0 mi Calm Calm - N/A   Clear
1:53 AM 50.0 °F 45.0 °F 83% 30.11 in 10.0 mi ESE 3.5 mph - N/A   Clear
2:53 AM 50.0 °F 44.1 °F 80% 30.10 in 10.0 mi Calm Calm - N/A   Clear
3:53 AM 48.9 °F 44.1 °F 83% 30.10 in 10.0 mi Calm Calm - N/A   Clear
4:53 AM 46.0 °F 44.1 °F 93% 30.11 in 10.0 mi Calm Calm - N/A   Clear
5:53 AM 46.9 °F 45.0 °F 93% 30.10 in 10.0 mi Calm Calm - N/A   Clear
6:53 AM 48.0 °F 46.0 °F 93% 30.09 in 10.0 mi Calm Calm - N/A   Clear
7:53 AM 59.0 °F 46.0 °F 62% 30.07 in 10.0 mi SSE 4.6 mph - N/A   Clear
8:53 AM 64.9 °F 44.1 °F 47% 30.06 in 10.0 mi ESE 10.4 mph - N/A   Clear
9:53 AM 69.1 °F 43.0 °F 39% 30.06 in 10.0 mi Variable 4.6 mph - N/A   Clear
10:53 AM 71.1 °F 42.1 °F 35% 30.05 in 10.0 mi SE 9.2 mph - N/A   Clear
11:53 AM 73.0 °F 46.0 °F 38% 30.04 in 10.0 mi SSE 4.6 mph - N/A   Clear
12:53 PM 75.9 °F 46.0 °F 35% 30.01 in 10.0 mi SSE 9.2 mph 16.1 mph N/A   Clear
1:53 PM 78.1 °F 46.0 °F 32% 29.98 in 10.0 mi Variable 4.6 mph - N/A   Clear
2:53 PM 78.1 °F 46.0 °F 32% 29.97 in 10.0 mi SSE 5.8 mph - N/A   Clear
3:53 PM 79.0 °F 45.0 °F 30% 29.94 in 10.0 mi SSE 4.6 mph - N/A   Clear
4:53 PM 80.1 °F 44.1 °F 28% 29.91 in 10.0 mi SSW 5.8 mph - N/A   Clear
5:53 PM 80.1 °F 46.9 °F 31% 29.89 in 10.0 mi South 5.8 mph - N/A   Clear
6:53 PM 77.0 °F 46.0 °F 33% 29.86 in 10.0 mi SSE 8.1 mph - N/A   Clear
7:53 PM 75.0 °F 46.0 °F 36% 29.85 in 10.0 mi SE 3.5 mph - N/A   Clear
8:53 PM 70.0 °F 48.9 °F 47% 29.84 in 10.0 mi ESE 4.6 mph - N/A   Clear
9:53 PM 69.1 °F 46.9 °F 45% 29.84 in 10.0 mi SE 4.6 mph - N/A   Clear
10:53 PM 66.9 °F 46.0 °F 47% 29.83 in 10.0 mi SE 5.8 mph - N/A   Clear
11:53 PM 66.9 °F 46.0 °F 47% 29.82 in 10.0 mi SE 6.9 mph - N/A   Clear